Regional Weather Roundup
Issued by NWS

Home | Current Version | Previous Version | Text Only | Print | Product List | Glossary On
Versions: 1 2 3 4 5 6 7 8 9 10 11 12 13 14 15 16 17 18 19 20 21 22 23 24 25 26 27 28 29 30 31 32 33 34 35 36 37 38 39 40 41 42 43 44 45 46 47 48 49 50
000
ASHW40 PHFO 240843
RWRHI

WEATHER ROUNDUP FOR HAWAII
NATIONAL WEATHER SERVICE HONOLULU HI
1000 PM HST SAT JUL 23 2016

THIS IS AN AUTOMATED REPORT THAT HAS NOT BEEN QUALITY CONTROLLED.

NOTE..."FAIR" INDICATES FEW OR NO CLOUDS BELOW 12,000 FEET WITH NO
SIGNIFICANT WEATHER AND/OR OBSTRUCTIONS TO VISIBILITY.

* - THESE SITES REPORT LIMITED FIELDS

HIZ001>004-240900-
KAUAI-NIIHAU-

CITY           SKY/WX    TMP DP  RH WIND       PRES   REMARKS
LIHUE APT      CLOUDY    76  73  91 N20       29.98R
PORT ALLEN*      N/A     79 N/A N/A N7          N/A
POIPU*           N/A     75 N/A N/A NE10G24     N/A
PRINCEVILLE*     N/A     73 N/A N/A E6G14       N/A
KOKOLE POINT*  NOT AVBL
MOLOAA DAIRY*    N/A     73  73 100 NE3G12      N/A
WAIMEA HTS*      N/A     75  70  83 NW2G8       N/A
PUU OPAE*        N/A     70  66  88 CALM        N/A
PUU LUA*       NOT AVBL
MAKAHA RIDGE*    N/A     70  68  94 NE3G13      N/A
$$

HIZ005>011-240900-
OAHU-

CITY           SKY/WX    TMP DP  RH WIND       PRES   REMARKS
HONOLULU       MOCLDY    80  71  74 N10G21    29.89R
KALAELOA       MOCLDY    79  72  78 NE8       29.90S
KANEOHE MCB    MOCLDY    79  75  87 NE10      29.89S
WHEELER FIELD  DRIZZLE   76  72  87 N8        29.93R
BELLOWS*         N/A    N/A N/A N/A NE18G24     N/A
KAHUKU*          N/A    N/A N/A N/A VRB9G20     N/A
WHEELER*         N/A    N/A N/A N/A N7G15       N/A
WAIANAE HARBOR   N/A    N/A N/A N/A NE7G15      N/A
DILLINGHAM*      N/A     77  73  88 MISG        N/A
KAHUKU TRN*      N/A     75  73  94 W15G26      N/A
KAWAILOA*        N/A     73  70  88 NE12G23     N/A
KII*             N/A     79  73  83 NE18G26     N/A
MAKUA RANGE*     N/A     77  72  83 W14G31      N/A
OAHU FOREST NW NOT AVBL
SCHOFIELD BRK*   N/A     75  73  94 MISG        N/A
SCHOFIELD S*   NOT AVBL
WAIANAE VLY*   NOT AVBL
KUAOKALA*      NOT AVBL
HONOULIUULI*   NOT AVBL
MOKUOLOE IS*   NOT AVBL
PALEHUA*       NOT AVBL
WAIAWA PHB*    NOT AVBL
$$

HIZ012>013-240900-
MOLOKAI-

CITY           SKY/WX    TMP DP  RH WIND       PRES   REMARKS
MOLOKAI AIRPT  LGT RAIN  79  72  78 NE15G31   29.88R
KALAUPAPA      NOT AVBL
MAKAPULAPAI*     N/A     79  73  83 E24G35      N/A
MOLOKAI 1*     NOT AVBL
PUU ALII*        N/A     64  64 100 N3G17       N/A
$$

HIZ016-240900-
KAHOOLAWE-

CITY           SKY/WX    TMP DP  RH WIND       PRES   REMARKS
KAHOOLAWE*       N/A     75 N/A N/A E1          N/A
HAKIOAWA*        N/A     77  70  78 CALM      30.27R
HONOKANAIA*      N/A     82  71  68 NE17G36   29.78R
KANELOA*         N/A     79  72  78 E24G46    29.91R
KEALIALALO*    NOT AVBL
LUA MAKIKA*    NOT AVBL
$$

HIZ014>015-240900-
LANAI-

CITY           SKY/WX    TMP DP  RH WIND       PRES   REMARKS
LANAI CITY     PTCLDY    73  70  88 NE14      29.91R
LANAI 1*       NOT AVBL
$$

HIZ017>028-240900-
MAUI-

CITY           SKY/WX    TMP DP  RH WIND       PRES   REMARKS
KAHULUI        PTCLDY    78  72  81 NE26G33   29.83F
KAPALUA-W MAUI NOT AVBL
HANA AIRPORT     N/A     77  72  83 SE3       29.94R
HANA*            N/A     79 N/A N/A SE6G13      N/A
HALEAKALA SUMM   N/A     48  48 100 E25G48      N/A
MAALAEA BAY*     N/A     79 N/A N/A N23G37      N/A
HALEAKALA*     NOT AVBL
KAUPO GAP*       N/A     72  72 100 N9G26       N/A
KULA 1*          N/A     59  57  92 S3          N/A
$$

HIZ023>026-240900-
BIG ISLAND OF HAWAII COAST AND LOWER SLOPES-

CITY           SKY/WX    TMP DP  RH WIND       PRES   REMARKS
KAILUA KONA    CLOUDY    84  73  69 SE22G28   29.81R HX  90
HILO           RAIN      73  72  94 W9        29.94F FOG
HONOKAA*         N/A     73 N/A N/A VRB1        N/A
KAWAIHAE MWT*    N/A     82 N/A N/A N7          N/A
KAWAIHAE*        N/A     82 N/A N/A N5        29.83S
SOUTH POINT*     N/A     73 N/A N/A NE13G18     N/A
UPOLU AIRPORT*   N/A    N/A N/A N/A E6          N/A
KAMUELA*       CLOUDY    70  68  94 CALM      29.97S
HAKALAU*         N/A     58  58  99 S7G13       N/A
KALOKO-HONOKO*   N/A     84  70  61 SE8G18    29.82
PALI 2*          N/A     66  66 100 NW18G32     N/A
KEALAKOMO*       N/A     73  72  94 N10G17      N/A
KAUPULEHU*     NOT AVBL
KAPAPALA*        N/A     68  67  98 N10G22      N/A
LOWER KAHUKU*    N/A     66  64  94 VRB3G13     N/A
PUHE CS*         N/A     81  72  74 NW3G12      N/A
PUHO CS*       NOT AVBL
PTA KEAMUKU*     N/A     66  66 100 CALM        N/A
WAIKOLOA*      NOT AVBL
$$

HIZ027>028-240900-
BIG ISLAND OF HAWAII INTERIOR AND SUMMMITS-

CITY           SKY/WX    TMP DP  RH WIND       PRES   REMARKS
BRADSHAW FIELD LGT RAIN  62  56  82 SE16G28   30.24R
MK VISITOR CEN   N/A     50  48  93 E6          N/A
MAUNA KEA*       N/A     39  39 100 SW14        N/A
MAUNA LOA*       N/A     48  43  81 MISG        N/A
MAUNA LOA 1*   NOT AVBL
PTA KIPUKA*      N/A     75  75 100 W3          N/A
PTA RANGE 17*    N/A     75  66  73 E18G30      N/A
PTA WEST*        N/A     79  77  94 NW6G12      N/A
NENE CABIN*      N/A     57  55  94 NE8G16      N/A
AHUMOA*        NOT AVBL
PTA PORTABLE*  NOT AVBL
PUU MALI*        N/A     59  59 100 W2          N/A
$$

HIC003-240900-
NORTHWEST ISLANDS-

CITY           SKY/WX    TMP DP  RH WIND       PRES   REMARKS
MIDWAY ISLAND  CLOUDY    79  73  83 E21       30.16R
MIDWAY NOS*      N/A     79 N/A N/A MISG      30.16R
FRENCH FRIGATE NOT AVBL
$$

PHZ110>124-180-240900-
BUOY REPORTS

STATION/POSITION TIME  TEMP    WIND        PRES    WAVE   SWELL
                       AIR SEA DIR/SP/G            HT/PER HT/DIR
                 (UTC) (F)     (DEG/KT/KT) (MB)    (FT/S) (FT/D)
BUOY 51001       0800   81 82   80/ 16/ 17 1016.9R
BUOY 51101       0750   76 78   40/ 16/ 17 1017.0R  10/11   8/ 90
BUOY 51100       NOT AVBL
BUOY 51002       0750   81 82   70/ 14/ 16 1013.9R   9/13   8
BUOY 51003       0750   80 82   30/ 16/ 19 1012.8R   7/ 7   5/ 40
BUOY 51004       0750   81 81  100/ 12/ 14 1014.2R   7/ 8   7/ 40
BARBERS PT BUOY  NOT AVBL
WAIMEA BAY BUOY  0804      79                N/A     6/ 6   2/ 30
KAILUA BAY BUOY  0811      80                N/A     8/ 8   3/ 90
LANAI BUOY       0815      81                N/A     2/12   2/180
BARBERS PT 2     NOT AVBL
PAUWELA MAUI     0809      79                N/A    10/ 9   3/ 70
HILO             0812      80                N/A     7/10   2/ 70
KANEOHE BAY BUOY 0806      79                N/A     8/ 8   2/ 70
HANALEI KAUAI    NOT AVBL
KAHULUI HARBOR   0800   79 80   40/ 17/ 23 1010.5F
HONOLULU HARBOR  0800   80 80   40/  5/ 15 1012.8R
KILO NALU        NOT AVBL
HILO HARBOR      0800   72 79  200/  4/  5 1013.6R
MOKUOLOE         0700   79 81   30/ 11/ 16 1013.1R
NAWILIWILI       0800   75 81   10/ 11/ 16 1014.9R
WHOTS BUOY       NOT AVBL
BUOY 51028       NOT AVBL
$$

......................KEY........................................
  SKY/WX - SKY CONDITIONS/PRESENT WEATHER
  TMP    - TEMPERATURE IN FAHRENHEIT
  DWPT   - DEWPOINT IN FAHRENHEIT
  RH     - RELATIVE HUMIDITY IN PERCENT
  WIND   - DIRECTION AND SPEED /MPH FOR ISLANDS...KTS FOR BUOYS/
  PRES   - MEAN SEA LEVEL PRESSURE IN INCHES OF HG
  VSB    - VISIBILITY IN MILES
  HX     - HEAT INDEX
  WCI    - WIND CHILL INDEX
  VRB    - VARIABLE WIND DIRECTION
  N/A    - NOT AVAILABLE



USA.gov is the U.S. government's official web portal to all federal, state and local government web resources and services.